DW0529 Weather Reports


Display with metric or nautical units.
time (UTC)temp
F
wind
direction
speed
MPH
gust
MPH
rain 1hr
in
rain 24hr
in
rain mn
in
humidity
%
barometer
mb
20260506174614 65 159 1.0 6.0 0.00 0.00 0.00 61 973.4
20260506173609 65 173 1.0 6.0 0.00 0.00 0.00 61 973.4
20260506172614 63 147 0.0 2.0 0.00 0.00 0.00 65 973.3
20260506171630 62 210 1.0 4.0 0.00 0.00 0.00 65 973.2
20260506165524 62 213 1.0 5.0 0.00 0.00 0.00 68 973.3
20260506163322 60 202 0.0 5.0 0.00 0.00 0.00 72 973.2
20260506162249 60 211 1.0 4.0 0.00 0.00 0.00 74 973.3
20260506161215 59 216 0.0 4.0 0.00 0.00 0.00 73 973.2
20260506160200 59 205 0.0 1.0 0.00 0.00 0.00 74 973.3
20260506155144 58 200 0.0 1.0 0.00 0.00 0.00 77 973.3
20260506154149 58 200 0.0 2.0 0.00 0.00 0.00 79 973.2
20260506153153 57 196 0.0 2.0 0.00 0.00 0.00 81 973.3
20260506152127 55 194 0.0 0.0 0.00 0.00 0.00 85 973.3
20260506151105 54 194 0.0 2.0 0.00 0.00 0.00 85 973.2
20260506150123 54 194 0.0 1.0 0.00 0.00 0.00 86 973.1
20260506145147 54 194 0.0 0.0 0.00 0.00 0.00 87 973.3
20260506143040 52 194 0.0 0.0 0.00 0.00 0.00 89 973.3
20260506142034 52 194 0.0 0.0 0.00 0.00 0.00 90 973.2
20260506135906 51 194 0.0 0.0 0.00 0.00 0.00 89 973.0
20260506134917 51 194 0.0 0.0 0.00 0.00 0.00 88 972.9
20260506133938 51 194 0.0 0.0 0.00 0.00 0.00 88 972.7
20260506132932 51 194 0.0 0.0 0.00 0.00 0.00 88 972.7
20260506131917 51 194 0.0 0.0 0.00 0.00 0.00 89 972.6
20260506130917 51 194 0.0 0.0 0.00 0.00 0.00 89 972.4
20260506125935 50 194 0.0 0.0 0.00 0.00 0.00 88 972.2
20260506124927 50 194 0.0 0.0 0.00 0.00 0.00 88 972.3
20260506122750 50 194 0.0 0.0 0.00 0.00 0.00 89 972.1
20260506121743 50 194 0.0 0.0 0.00 0.00 0.00 90 972.0
20260506120752 50 194 0.0 0.0 0.00 0.00 0.00 90 972.1
20260506114608 51 194 0.0 0.0 0.00 0.00 0.00 90 972.0
20260506113617 51 194 0.0 0.0 0.00 0.00 0.00 90 972.0
20260506111403 51 194 0.0 0.0 0.00 0.00 0.00 91 972.0
20260506110421 51 194 0.0 0.0 0.00 0.00 0.00 90 972.0
20260506105417 51 194 0.0 0.0 0.00 0.00 0.00 90 972.0
20260506104349 51 194 0.0 0.0 0.00 0.00 0.00 90 972.0
20260506103341 51 194 0.0 0.0 0.00 0.00 0.00 90 972.1
20260506102403 51 194 0.0 0.0 0.00 0.00 0.00 90 972.0
20260506101334 51 194 0.0 0.0 0.00 0.00 0.00 90 972.1
20260506100334 51 194 0.0 0.0 0.00 0.00 0.00 90 972.0
20260506095326 52 194 0.0 0.0 0.00 0.00 0.00 90 972.1
20260506094300 52 194 0.0 0.0 0.00 0.00 0.00 89 972.2
20260506093324 52 194 0.0 0.0 0.00 0.00 0.00 89 972.2
20260506092347 52 194 0.0 0.0 0.00 0.00 0.00 89 972.2
20260506091325 52 194 0.0 0.0 0.00 0.00 0.00 89 972.2
20260506090321 52 194 0.0 0.0 0.00 0.00 0.00 89 972.3
20260506085317 52 194 0.0 0.0 0.00 0.00 0.00 88 972.4
20260506083153 53 194 0.0 0.0 0.00 0.00 0.00 87 972.6
20260506082138 53 194 0.0 0.0 0.00 0.00 0.00 88 972.5
20260506081146 53 194 0.0 0.0 0.00 0.00 0.00 88 972.6
20260506080131 52 194 0.0 0.0 0.00 0.00 0.00 89 972.7
20260506072920 52 194 0.0 0.0 0.00 0.00 0.00 88 972.6
20260506071915 52 194 0.0 0.0 0.00 0.00 0.00 88 972.6
20260506070841 53 194 0.0 0.0 0.00 0.00 0.00 87 972.4
20260506062451 52 194 0.0 0.0 0.00 0.00 0.00 86 971.8
20260506060310 53 194 0.0 0.0 0.00 0.00 0.00 86 971.8
20260506044814 53 194 0.0 0.0 0.00 0.00 0.00 84 971.3
20260506043742 53 194 0.0 0.0 0.00 0.00 0.00 82 971.2
20260506042729 53 194 0.0 0.0 0.00 0.00 0.00 82 971.0
20260506040525 54 194 0.0 0.0 0.00 0.00 0.00 79 970.7
20260506035550 54 194 0.0 0.0 0.00 0.00 0.00 79 970.7
20260506034603 54 194 0.0 0.0 0.00 0.00 0.00 78 970.6
20260506030257 56 194 0.0 0.0 0.00 0.00 0.00 73 970.0
20260506024203 57 194 0.0 0.0 0.00 0.00 0.00 73 969.7
20260506023217 58 194 0.0 0.0 0.00 0.00 0.00 71 969.7
20260506021126 58 194 0.0 1.0 0.00 0.00 0.00 71 969.3
20260506020104 58 194 0.0 2.0 0.00 0.00 0.00 71 969.2
20260506015057 58 194 0.0 2.0 0.00 0.00 0.00 71 969.3
20260506014053 58 194 0.0 2.0 0.00 0.00 0.00 71 969.2
20260506011930 58 217 1.0 3.0 0.00 0.00 0.00 68 969.1
20260506005835 57 188 0.0 0.0 0.00 0.00 0.00 69 969.2
20260506004844 57 165 0.0 4.0 0.00 0.00 0.00 68 969.1
20260506003840 58 193 0.0 4.0 0.00 0.00 0.00 69 969.1
20260506002830 58 185 0.0 3.0 0.00 0.00 0.00 69 968.9
20260506001807 58 182 0.0 5.0 0.00 0.00 0.00 70 969.0
20260506000829 58 219 1.0 5.0 0.00 0.00 0.00 69 968.8
20260505235835 58 229 1.0 6.0 0.00 0.00 0.00 68 968.9
20260505233733 59 191 1.0 6.0 0.00 0.00 0.00 65 968.9
20260505231603 59 203 2.0 7.0 0.00 0.00 0.00 65 969.0
20260505230536 58 194 2.0 7.0 0.00 0.00 0.00 68 969.0
20260505225546 57 193 2.0 6.0 0.00 0.00 0.00 70 969.1
20260505224552 57 194 2.0 8.0 0.00 0.00 0.00 69 969.2
20260505223605 57 142 3.0 8.0 0.00 0.00 0.00 69 969.1
20260505222624 58 215 3.0 7.0 0.00 0.00 0.00 65 969.3
20260505221642 59 187 2.0 7.0 0.00 0.00 0.00 61 969.3
20260505220657 60 218 2.0 8.0 0.00 0.00 0.00 55 969.3
20260505215638 61 146 2.0 9.0 0.00 0.00 0.00 54 969.4
20260505214657 61 214 2.0 9.0 0.00 0.00 0.00 52 969.5
20260505213701 60 183 3.0 9.0 0.00 0.00 0.00 52 969.5
20260505212640 61 156 3.0 10.0 0.00 0.00 0.00 51 969.5
20260505211634 61 231 3.0 10.0 0.00 0.00 0.00 51 969.5
20260505210658 61 219 2.0 8.0 0.00 0.00 0.00 52 969.6
20260505205630 59 173 2.0 9.0 0.00 0.00 0.00 56 969.6
20260505204623 59 215 2.0 9.0 0.00 0.00 0.00 55 969.5
20260505203636 60 223 2.0 9.0 0.00 0.00 0.00 55 969.5
20260505200442 61 182 2.0 8.0 0.00 0.00 0.00 53 969.6
20260505195418 62 195 2.0 7.0 0.00 0.00 0.00 49 969.5
20260505194408 63 165 2.0 8.0 0.00 0.00 0.00 50 969.6
20260505193346 62 202 3.0 8.0 0.00 0.00 0.00 47 969.6
20260505192346 62 240 2.0 7.0 0.00 0.00 0.00 50 969.6
20260505191328 62 148 2.0 7.0 0.00 0.00 0.00 53 969.6
20260505185208 62 221 1.0 6.0 0.00 0.00 0.00 56 969.7
20260505183016 62 217 0.0 4.0 0.00 0.00 0.00 61 969.6
20260505182015 61 200 0.0 4.0 0.00 0.00 0.00 61 969.6
20260505175855 59 226 1.0 5.0 0.00 0.00 0.00 64 969.7